Location: Kerb�bon
(47.7970°N, 3.3487°W)
Time: 13:27:32
(UTC+00:00)

Intercosmos 24 - Pass Details

Date: 12 May 2021
Orbit: 499 x 2378 km, 82.6° (Epoch: 18 June)

Event Time Altitude Azimuth Distance (km) Brightness Sun altitude
Rises 20:26:26 0° 188° (S) 2,730 7.1 -7.2°
Reaches altitude 10° 20:28:38 10° 189° (S) 1,754 6.1 -7.5°
Maximum altitude 20:32:16 88° 281° (WNW) 507 3.7 -7.9°
Drops below altitude 10° 20:35:57 10° 9° (N) 1,780 6.9 -8.4°
Sets 20:38:12 0° 10° (N) 2,775 7.9 -8.7°
